Moffett Field, CA

11:14 PM PST on February 06, 2016 (GMT -0800)
Moffett Federal Air Field

Weather History for KNUQ - December, 2011

Change the Weather History Date:

Sunday, December 11, 2011

  Actual Average Record
Temperature  
Mean Temperature 52 °F 51 °F  
Max Temperature 58 °F 59 °F 74 °F (1958)
Min Temperature 46 °F 43 °F 29 °F (1972)
Degree Days  
Heating Degree Days 13    
Month to date heating degree days 125  
Since 1 July heating degree days 408  
Cooling Degree Days 0    
Month to date cooling degree days 0  
Year to date cooling degree days 459  
Growing Degree Days 2 (Base 50)    
Moisture  
Dew Point 41 °F    
Average Humidity 67    
Maximum Humidity 82    
Minimum Humidity 51    
Precipitation  
Precipitation T in 0.07 in 3.36 in (2014)
Month to date precipitation T 0.76  
Year to date precipitation 11.11 12.88  
Since 1 July precipitation 1.61  
Sea Level Pressure  
Sea Level Pressure 29.96 in    
Wind  
Wind Speed 2 mph (SSE)    
Max Wind Speed 9 mph    
Max Gust Speed 24 mph    
Visibility 8 miles    
Events Rain    
T = Trace of Precipitation, MM = Missing Value Source: NWS Daily Summary

Daily Weather History Graph

Daily Weather History Graph

Search for Another Location

Airport or City:

Trip Planner

Search our weather history database for the weather conditions in past years. The results will help you decide how hot, cold, wet, or windy it might be!

Date:

Astronomy

Dec. 11, 2011 Rise Set
Actual Time 7:12 AM PST 4:50 PM PST
Civil Twilight 6:43 AM PST 5:19 PM PST
Nautical Twilight 6:10 AM PST 5:52 PM PST
Astronomical Twilight 5:38 AM PST 6:23 PM PST
Moon 6:05 PM PST (12/11) 8:04 AM PST (12/11)
Length of Visible Light 10h 36m
Length of Day
9h 38m
Full, 99% of the Moon is Illuminated
Dec 11
Full
Dec 17
Last Quarter
Dec 24
New
Dec 31
First Quarter
Jan 8
Full

Hourly Weather History & Observations

Time (PST) Temp. Dew Point Humidity Pressure Visibility Wind Dir Wind Speed Gust Speed Precip Events Conditions
12:26 AM 46.4 °F 39.2 °F 76% 30.06 in 5.0 mi Calm Calm - N/A   Haze
12:56 AM 48.0 °F 41.0 °F 77% 30.06 in 5.0 mi Calm Calm - N/A   Haze
1:22 AM 48.2 °F 41.0 °F 76% 30.05 in 6.0 mi Calm Calm - N/A   Haze
1:30 AM 48.2 °F 41.0 °F 76% 30.04 in 6.0 mi Calm Calm - N/A   Haze
1:56 AM 48.0 °F 41.0 °F 77% 30.04 in 7.0 mi Calm Calm - N/A   Overcast
2:05 AM 48.2 °F 39.2 °F 71% 30.03 in 7.0 mi South 3.5 mph - N/A   Mostly Cloudy
2:48 AM 48.2 °F 39.2 °F 71% 30.01 in 8.0 mi South 3.5 mph - N/A   Scattered Clouds
2:56 AM 48.0 °F 39.0 °F 71% 30.02 in 8.0 mi South 3.5 mph - N/A   Partly Cloudy
3:11 AM 48.2 °F 37.4 °F 66% 30.01 in 8.0 mi South 4.6 mph - N/A   Mostly Cloudy
3:56 AM 48.0 °F 39.0 °F 71% 30.01 in 9.0 mi South 3.5 mph - N/A   Overcast
4:56 AM 48.0 °F 39.0 °F 71% 30.00 in 8.0 mi Calm Calm - N/A   Overcast
5:56 AM 48.9 °F 39.9 °F 71% 29.99 in 8.0 mi Calm Calm - N/A   Overcast
6:56 AM 48.9 °F 39.9 °F 71% 30.00 in 7.0 mi Calm Calm - N/A   Overcast
7:10 AM 48.2 °F 39.2 °F 71% 29.99 in 7.0 mi Calm Calm - N/A   Overcast
7:56 AM 48.9 °F 39.9 °F 71% 30.01 in 6.0 mi Calm Calm - N/A   Haze
8:56 AM 52.0 °F 41.0 °F 66% 30.00 in 5.0 mi ESE 6.9 mph - N/A   Haze
9:56 AM 54.0 °F 42.1 °F 64% 30.00 in 5.0 mi SE 5.8 mph - N/A   Haze
10:56 AM 55.9 °F 41.0 °F 57% 29.98 in 6.0 mi SE 4.6 mph - N/A   Haze
11:56 AM 55.9 °F 37.9 °F 51% 29.95 in 10.0 mi Calm Calm - N/A   Overcast
12:56 PM 57.0 °F 39.0 °F 51% 29.93 in 10.0 mi NNE 6.9 mph - N/A   Overcast
1:56 PM 57.0 °F 39.0 °F 51% 29.92 in 10.0 mi North 3.5 mph - N/A   Overcast
2:56 PM 55.9 °F 39.9 °F 55% 29.91 in 10.0 mi NNW 8.1 mph - N/A   Overcast
3:56 PM 55.0 °F 41.0 °F 59% 29.89 in 10.0 mi NNW 5.8 mph - N/A   Overcast
4:56 PM 54.0 °F 43.0 °F 66% 29.89 in 10.0 mi NNW 5.8 mph - N/A   Overcast
5:56 PM 52.0 °F 41.0 °F 66% 29.89 in 10.0 mi NW 3.5 mph - 0.00 in Rain Light Rain
6:56 PM 52.0 °F 42.1 °F 69% 29.88 in 10.0 mi Calm Calm - 0.00 in   Overcast
7:56 PM 51.1 °F 43.0 °F 74% 29.88 in 10.0 mi Calm Calm - 0.00 in   Overcast
8:56 PM 51.1 °F 42.1 °F 71% 29.87 in 10.0 mi Calm Calm - N/A   Overcast
9:56 PM 52.0 °F 42.1 °F 69% 29.87 in 10.0 mi Calm Calm - 0.00 in Rain Light Rain
10:56 PM 51.1 °F 44.1 °F 77% 29.87 in 10.0 mi Calm Calm - 0.00 in   Overcast
11:56 PM 51.1 °F 44.1 °F 77% 29.85 in 10.0 mi Calm Calm - 0.00 in   Overcast